Challis, ID

10:11 AM MST on February 12, 2016 (GMT -0700)
Challis

Weather History for KLLJ - August, 2013

Change the Weather History Date:

Sunday, August 11, 2013

  Actual Average Record
Temperature  
Mean Temperature 64 °F 68 °F  
Max Temperature 80 °F 87 °F 98 °F (1969)
Min Temperature 48 °F 49 °F 39 °F (1947)
Degree Days  
Heating Degree Days 1 1  
Month to date heating degree days 4 6  
Since 1 June heating degree days 125 192  
Since 1 July heating degree days 4 27  
Cooling Degree Days 0 4  
Month to date cooling degree days 36 48  
Year to date cooling degree days 302 204  
Since 1 June cooling degree days 300 202  
Growing Degree Days 15 (Base 50)    
Moisture  
Dew Point 34 °F    
Average Humidity 34    
Maximum Humidity 47    
Minimum Humidity 20    
Precipitation  
Precipitation 0.00 in 0.03 in 0.70 in (1936)
Month to date precipitation 0.06 0.30  
Year to date precipitation 2.34 6.90  
Sea Level Pressure  
Sea Level Pressure 29.98 in    
Wind  
Wind Speed 3 mph (NW)    
Max Wind Speed 20 mph    
Max Gust Speed 24 mph    
Visibility 8 miles    
Events Thunderstorm    
T = Trace of Precipitation, MM = Missing Value Source: NWS Daily Summary

Daily Weather History Graph

Daily Weather History Graph

Search for Another Location

Airport or City:

Trip Planner

Search our weather history database for the weather conditions in past years. The results will help you decide how hot, cold, wet, or windy it might be!

Date:

Astronomy

Aug. 11, 2013 Rise Set
Actual Time 6:35 AM MDT 8:47 PM MDT
Civil Twilight 6:03 AM MDT 9:19 PM MDT
Nautical Twilight 5:23 AM MDT 9:59 PM MDT
Astronomical Twilight 4:39 AM MDT 10:43 PM MDT
Moon 11:42 AM MDT (8/11) 10:50 PM MDT (8/11)
Length of Visible Light 15h 16m
Length of Day
14h 12m
Waxing Crescent, 22% of the Moon is Illuminated
Aug 11
Waxing Crescent
Aug 14
First Quarter
Aug 20
Full
Aug 28
Last Quarter
Sep 5
New

Hourly Weather History & Observations

Time (MDT) Temp. Dew Point Humidity Pressure Visibility Wind Dir Wind Speed Gust Speed Precip Events Conditions
12:55 AM 55.0 °F 30.9 °F 40% 29.92 in 9.0 mi West 3.5 mph - N/A   Clear
1:55 AM 55.0 °F 27.0 °F 34% 29.92 in 9.0 mi Calm Calm - N/A   Clear
2:55 AM 55.9 °F 28.0 °F 34% 29.93 in 9.0 mi Calm Calm - N/A   Clear
3:55 AM 54.0 °F 30.0 °F 40% 29.92 in 9.0 mi Calm Calm - N/A   Clear
4:55 AM 52.0 °F 28.9 °F 41% 29.94 in 10.0 mi Calm Calm - N/A   Clear
5:55 AM 50.0 °F 28.0 °F 43% 29.95 in 10.0 mi NNW 3.5 mph - N/A   Clear
6:55 AM 53.1 °F 27.0 °F 37% 29.95 in 8.0 mi Calm Calm - N/A   Clear
7:55 AM 55.9 °F 32.0 °F 40% 29.97 in 7.0 mi Calm Calm - N/A   Clear
8:55 AM 59.0 °F 33.1 °F 38% 29.98 in 6.0 mi Calm Calm - N/A   Haze
9:55 AM 64.9 °F 28.9 °F 26% 29.98 in 6.0 mi Calm Calm - N/A   Haze
10:55 AM 66.9 °F 28.9 °F 24% 29.99 in 6.0 mi Variable 3.5 mph - N/A   Haze
11:55 AM 73.0 °F 30.0 °F 20% 29.95 in 8.0 mi Calm Calm - N/A   Clear
12:55 PM 73.9 °F 36.0 °F 25% 29.94 in 10.0 mi NW 4.6 mph - N/A   Scattered Clouds
1:20 PM 73.4 °F 37.4 °F 27% 30.09 in 10.0 mi NW 8.1 mph - N/A Thunderstorm Partly Cloudy
1:35 PM 73.4 °F 35.6 °F 25% 30.09 in 10.0 mi NW 4.6 mph - N/A   Scattered Clouds
1:52 PM 80.6 °F 37.4 °F 21% 30.09 in 10.0 mi North 8.1 mph - N/A Thunderstorm Thunderstorm
1:55 PM 80.1 °F 37.0 °F 21% 29.91 in 10.0 mi Variable 5.8 mph - N/A Thunderstorm Thunderstorm
2:07 PM 78.8 °F 35.6 °F 21% 30.09 in 10.0 mi NW 10.4 mph - N/A   Partly Cloudy
2:20 PM 75.2 °F 37.4 °F 25% 30.08 in 10.0 mi North 9.2 mph - N/A Thunderstorm Clear
2:45 PM 73.4 °F 41.0 °F 31% 30.08 in 10.0 mi NW 3.5 mph - N/A Thunderstorm Clear
2:55 PM 73.0 °F 39.9 °F 30% 29.92 in 10.0 mi NW 10.4 mph - N/A Thunderstorm Clear
3:06 PM 75.2 °F 35.6 °F 24% 30.08 in 10.0 mi NW 9.2 mph - N/A   Scattered Clouds
3:55 PM 77.0 °F 37.9 °F 24% 29.91 in 10.0 mi NW 9.2 mph - N/A   Clear
4:55 PM 79.0 °F 37.9 °F 23% 29.90 in 10.0 mi NW 4.6 mph - N/A   Clear
5:55 PM 75.9 °F 35.1 °F 23% 29.92 in 5.0 mi WNW 13.8 mph - N/A   Haze
6:22 PM 75.2 °F 35.6 °F 24% 30.07 in 3.0 mi WNW 13.8 mph - N/A   Haze
6:55 PM 73.0 °F 36.0 °F 26% 29.92 in 4.0 mi NW 10.4 mph - N/A   Haze
7:03 PM 73.4 °F 35.6 °F 25% 30.07 in 4.0 mi NNW 8.1 mph - N/A   Haze
7:55 PM 70.0 °F 36.0 °F 29% 29.93 in 5.0 mi Calm Calm - N/A   Haze
8:55 PM 66.9 °F 32.0 °F 27% 29.93 in 6.0 mi West 6.9 mph - N/A   Haze
9:55 PM 63.0 °F 39.0 °F 41% 29.95 in 7.0 mi South 3.5 mph - N/A   Clear
10:55 PM 57.0 °F 37.0 °F 47% 29.97 in 7.0 mi West 3.5 mph - N/A   Clear
11:55 PM 57.9 °F 37.0 °F 46% 29.95 in 5.0 mi Calm Calm - N/A   Haze